Location: Unspecified
(0.0000°N, 0.0000°E)
Time: 20:53:22
(UTC+00:00)

deb NNS O-5 - Visible Passes

Search period start: 09 June 2026 00:00
Search period end: 19 June 2026 00:00
Orbit: 1081 x 1184 km, 90.1° (Epoch: 9 June)

Date Brightness Start Highest point End Pass type
(mag) Time Alt. Az. Time Alt. Az. Time Alt. Az.
9 Jun ? 02:14:29 10° NE 02:17:01 19° ENE 02:17:01 19° ENE visible
9 Jun ? 04:01:43 10° NNW 04:05:01 23° NW 04:05:01 23° NW visible
10 Jun ? 03:25:11 10° N 03:28:53 33° NNW 03:28:53 33° NNW visible
11 Jun ? 02:49:32 10° N 02:52:46 30° NNE 02:52:46 30° NNE visible
12 Jun ? 02:14:42 10° NNE 02:16:40 19° NE 02:16:40 19° NE visible
12 Jun ? 04:03:16 10° NW 04:04:40 15° NW 04:04:40 15° NW visible
13 Jun ? 03:26:15 10° NNW 03:28:35 22° NNW 03:28:35 22° NNW visible
14 Jun ? 02:50:17 10° N 02:52:32 23° N 02:52:32 23° N visible
15 Jun ? 02:15:06 10° NNE 02:16:29 16° NNE 02:16:29 16° NNE visible
16 Jun ? 03:27:28 10° NNW 03:28:26 14° NNW 03:28:26 14° NNW visible
17 Jun ? 02:51:09 10° N 02:52:25 16° N 02:52:25 16° N visible
18 Jun ? 02:15:39 10° NNE 02:16:24 14° NNE 02:16:24 14° NNE visible
